N7MLR Weather Reports


time (UTC)temp
C
wind
direction
speed
KPH
gust
KPH
rain 1hr
cm
rain 24hr
cm
rain mn
cm
humidity
%
barometer
mb
20220812003041 25 210 1.6 1.6 0.00 0.58 0.58 87 1014.3
20220812002540 25 213 0.0 1.6 0.00 0.58 0.58 89 1014.1
20220812002040 25 211 0.0 0.0 0.00 0.58 0.58 90 1014.5
20220812001540 25 212 0.0 0.0 0.00 0.58 0.58 89 1014.2
20220812001039 24 215 1.6 1.6 0.00 0.58 0.58 91 1014.2
20220812000538 24 186 1.6 1.6 0.00 0.58 0.58 93 1014.2
20220812000037 24 212 1.6 1.6 0.00 0.58 0.58 93 1014.4
20220811235537 24 261 1.6 3.2 0.00 0.58 0.58 92 1014.3
20220811235037 24 209 1.6 1.6 0.00 0.58 0.58 92 1014.4
20220811234536 24 201 1.6 1.6 0.00 0.58 0.58 93 1014.6
20220811234035 23 190 3.2 3.2 0.00 0.58 0.58 93 1014.5
20220811233535 23 257 3.2 3.2 0.00 0.58 0.58 94 1014.5
20220811233035 23 185 1.6 1.6 0.00 0.58 0.58 94 1014.7
20220811232534 23 212 1.6 3.2 0.00 0.58 0.58 94 1014.7
20220811232033 23 210 1.6 1.6 0.00 0.58 0.58 93 1014.8
20220811231533 24 218 3.2 3.2 0.00 0.58 0.58 93 1014.8
20220811231032 24 215 1.6 3.2 0.00 0.58 0.58 94 1015.0
20220811230531 23 207 1.6 1.6 0.00 0.58 0.58 94 1015.1
20220811230029 23 213 1.6 1.6 0.00 0.58 0.58 94 1014.9
20220811225529 23 213 1.6 1.6 0.00 0.58 0.58 93 1014.9
20220811225028 23 211 3.2 3.2 0.28 0.58 0.58 93 1014.7
20220811224528 23 221 3.2 3.2 0.28 0.58 0.58 93 1015.1
20220811224027 24 181 3.2 3.2 0.00 0.53 0.53 90 1015.0
20220811223527 24 205 3.2 3.2 0.00 0.53 0.53 89 1015.2
20220811223026 24 162 4.8 4.8 0.18 0.53 0.53 89 1014.9
20220811222525 24 95 4.8 4.8 0.28 0.53 0.53 88 1014.6
20220811222025 24 106 6.4 8.0 0.41 0.51 0.51 88 1014.6
20220811221524 25 110 4.8 4.8 1.55 0.48 0.48 90 1014.7
20220811221024 25 200 3.2 3.2 2.57 0.46 0.46 87 1014.9
20220811220523 27 183 1.6 1.6 1.55 0.25 0.25 81 1014.5
20220811220021 32 216 1.6 1.6 0.18 0.03 0.03 59 1014.4
20220811215521 33 200 3.2 3.2 0.00 0.00 0.00 45 1014.5
20220811215020 33 209 3.2 3.2 0.00 0.00 0.00 46 1014.4
20220811214518 33 128 4.8 4.8 0.00 0.00 0.00 44 1014.1
20220811214018 32 53 4.8 4.8 0.00 0.00 0.00 45 1013.7
20220811213517 33 216 4.8 4.8 0.00 0.00 0.00 45 1014.1
20220811213016 35 222 1.6 1.6 0.00 0.00 0.00 42 1014.1
20220811212516 35 222 3.2 3.2 0.00 0.00 0.00 41 1014.1
20220811212015 35 227 3.2 3.2 0.00 0.00 0.00 41 1014.1
20220811211514 35 230 4.8 4.8 0.00 0.00 0.00 41 1014.1
20220811211013 35 217 1.6 1.6 0.00 0.00 0.00 40 1014.0
20220811210511 37 282 4.8 8.0 0.00 0.00 0.00 37 1014.1
20220811210011 35 210 1.6 3.2 0.00 0.00 0.00 40 1014.2
20220811205510 35 224 4.8 8.0 0.00 0.00 0.00 38 1014.4
20220811205008 36 237 3.2 3.2 0.00 0.00 0.00 38 1014.4
20220811204507 36 213 1.6 3.2 0.00 0.00 0.00 37 1014.4
20220811204008 36 225 4.8 4.8 0.00 0.00 0.00 37 1015.0
20220811203507 37 216 1.6 3.2 0.00 0.00 0.00 36 1014.5
20220811203005 37 229 3.2 8.0 0.00 0.00 0.00 35 1014.6
20220811202505 35 216 4.8 4.8 0.00 0.00 0.00 38 1014.9
20220811202003 35 224 1.6 1.6 0.00 0.00 0.00 39 1014.7
20220811201503 35 194 8.0 9.7 0.00 0.00 0.00 38 1014.6
20220811201002 36 219 4.8 8.0 0.00 0.00 0.00 36 1014.8
20220811200501 36 232 8.0 14.5 0.00 0.00 0.00 36 1014.8
20220811200001 37 192 3.2 4.8 0.00 0.00 0.00 35 1014.9
20220811195459 36 195 1.6 1.6 0.00 0.00 0.00 36 1015.1
20220811194958 37 154 4.8 8.0 0.00 0.00 0.00 35 1015.1
20220811194457 38 184 1.6 1.6 0.00 0.00 0.00 34 1015.3
20220811193957 37 202 1.6 3.2 0.00 0.00 0.00 35 1015.4
20220811193456 37 249 1.6 1.6 0.00 0.00 0.00 36 1015.3
20220811192955 36 214 3.2 3.2 0.00 0.00 0.00 37 1015.5
20220811192454 34 208 6.4 8.0 0.00 0.00 0.00 40 1015.9
20220811191953 35 238 8.0 9.7 0.00 0.00 0.00 41 1015.7
20220811191452 35 176 6.4 9.7 0.00 0.00 0.00 39 1015.9
20220811190950 36 235 3.2 3.2 0.00 0.00 0.00 37 1015.8
20220811190449 36 214 3.2 4.8 0.00 0.00 0.00 36 1015.9
20220811185949 36 218 4.8 4.8 0.00 0.00 0.00 35 1016.2
20220811185448 36 216 6.4 8.0 0.00 0.00 0.00 36 1016.3
20220811184947 36 214 3.2 3.2 0.00 0.00 0.00 34 1016.3
20220811184446 36 237 4.8 4.8 0.00 0.00 0.00 35 1016.3
20220811183945 36 217 4.8 8.0 0.00 0.00 0.00 35 1016.3
20220811183444 36 204 11.3 12.9 0.00 0.00 0.00 36 1016.4
20220811182944 35 211 1.6 1.6 0.00 0.00 0.00 38 1016.6
20220811182443 35 185 4.8 8.0 0.00 0.00 0.00 40 1016.7
20220811181942 36 234 1.6 3.2 0.00 0.00 0.00 38 1017.0
20220811181441 34 220 1.6 3.2 0.00 0.00 0.00 42 1017.0
20220811180941 35 205 9.7 11.3 0.00 0.00 0.00 42 1017.5
20220811180441 35 202 1.6 1.6 0.00 0.00 0.00 41 1017.3
20220811175939 35 204 1.6 1.6 0.00 0.00 0.00 42 1017.5
20220811175439 34 252 1.6 3.2 0.00 0.00 0.00 42 1017.5
20220811174937 34 218 3.2 3.2 0.00 0.00 0.00 43 1017.6
20220811174436 33 159 3.2 4.8 0.00 0.00 0.00 43 1017.6
20220811173935 33 209 1.6 1.6 0.00 0.00 0.00 45 1017.8
20220811173434 33 274 1.6 3.2 0.00 0.00 0.00 43 1018.1
20220811172933 33 246 1.6 1.6 0.00 0.00 0.00 46 1018.1
20220811172433 32 202 3.2 3.2 0.00 0.00 0.00 45 1018.1
20220811171931 32 214 4.8 8.0 0.00 0.00 0.00 47 1018.4
20220811171431 33 193 1.6 3.2 0.00 0.00 0.00 46 1018.3
20220811170930 33 206 1.6 3.2 0.00 0.00 0.00 44 1018.4
20220811170429 32 207 1.6 1.6 0.00 0.00 0.00 47 1018.3
20220811165929 32 191 3.2 3.2 0.00 0.00 0.00 46 1018.4
20220811165428 32 204 3.2 3.2 0.00 0.00 0.00 47 1018.5
20220811164924 32 204 1.6 1.6 0.00 0.00 0.00 46 1018.6
20220811164424 32 231 3.2 3.2 0.00 0.00 0.00 46 1018.6
20220811163923 32 210 1.6 1.6 0.00 0.00 0.00 46 1018.5
20220811163422 32 207 1.6 1.6 0.00 0.00 0.00 45 1018.5
20220811162923 32 209 1.6 1.6 0.00 0.00 0.00 45 1018.7
20220811162421 31 209 1.6 3.2 0.00 0.00 0.00 48 1018.6
20220811161921 31 208 1.6 1.6 0.00 0.00 0.00 49 1018.5
20220811161420 32 179 1.6 3.2 0.00 0.00 0.00 49 1018.4
20220811160920 32 205 1.6 1.6 0.00 0.00 0.00 48 1018.8
20220811160418 31 192 3.2 3.2 0.00 0.00 0.00 49 1018.9
20220811155918 31 204 0.0 1.6 0.00 0.00 0.00 50 1018.8
20220811155417 31 202 1.6 1.6 0.00 0.00 0.00 51 1018.5
20220811154916 31 208 1.6 1.6 0.00 0.00 0.00 50 1018.5
20220811154415 31 204 1.6 1.6 0.00 0.00 0.00 50 1018.5
20220811153916 32 211 1.6 1.6 0.00 0.00 0.00 50 1018.5
20220811153414 31 212 3.2 3.2 0.00 0.00 0.00 50 1018.3
20220811152913 32 204 1.6 1.6 0.00 0.00 0.00 51 1018.6
20220811152412 31 207 1.6 1.6 0.00 0.00 0.00 49 1018.4
20220811151911 31 212 1.6 1.6 0.00 0.00 0.00 53 1018.5
20220811151411 30 210 1.6 1.6 0.00 0.00 0.00 54 1018.6
20220811150909 30 207 3.2 3.2 0.00 0.00 0.00 56 1018.5
20220811150408 30 157 1.6 3.2 0.00 0.00 0.00 56 1018.6
20220811145906 30 212 3.2 3.2 0.00 0.00 0.00 57 1018.4
20220811145406 28 208 1.6 1.6 0.00 0.00 0.00 61 1018.7
20220811144906 28 206 1.6 1.6 0.00 0.00 0.00 62 1018.5
20220811144405 28 211 3.2 3.2 0.00 0.00 0.00 62 1018.3
20220811143905 28 212 1.6 1.6 0.00 0.00 0.00 63 1018.4
20220811143404 28 213 1.6 1.6 0.00 0.00 0.00 65 1018.3
20220811142903 28 212 1.6 3.2 0.00 0.00 0.00 66 1018.5
20220811142402 28 211 1.6 1.6 0.00 0.00 0.00 65 1018.3
20220811141901 28 199 0.0 0.0 0.00 0.00 0.00 66 1018.4
20220811141401 27 215 0.0 0.0 0.00 0.00 0.00 67 1018.4
20220811140859 27 211 0.0 0.0 0.00 0.00 0.00 70 1018.3
20220811140359 27 198 1.6 1.6 0.00 0.00 0.00 70 1018.3
20220811135859 27 208 0.0 1.6 0.00 0.00 0.00 72 1018.2
20220811135358 27 193 1.6 1.6 0.00 0.00 0.00 73 1018.1
20220811134857 27 212 0.0 0.0 0.00 0.00 0.00 71 1018.2
20220811134355 27 212 1.6 1.6 0.00 0.00 0.00 73 1018.1
20220811133854 26 211 0.0 0.0 0.00 0.00 0.00 75 1018.1
20220811133352 26 207 1.6 1.6 0.00 0.00 0.00 76 1018.1
20220811132851 26 212 0.0 0.0 0.00 0.00 0.00 76 1017.8
20220811132350 26 215 0.0 0.0 0.00 0.00 0.00 76 1018.1
20220811131850 26 212 0.0 0.0 0.00 0.00 0.00 74 1017.9
20220811131349 26 212 0.0 1.6 0.00 0.00 0.00 77 1018.1
20220811130848 25 212 0.0 0.0 0.00 0.00 0.00 78 1017.9
20220811130348 25 215 0.0 0.0 0.00 0.00 0.00 78 1017.8
20220811125847 25 221 0.0 0.0 0.00 0.00 0.00 79 1017.8
20220811125346 25 221 0.0 0.0 0.00 0.00 0.00 80 1017.8
20220811124845 25 212 0.0 0.0 0.00 0.00 0.00 80 1017.9
20220811124345 24 212 1.6 1.6 0.00 0.00 0.00 80 1017.8
20220811123845 23 211 0.0 0.0 0.00 0.00 0.00 83 1017.7
20220811123344 23 211 0.0 0.0 0.00 0.00 0.00 83 1017.5
20220811122843 23 212 0.0 0.0 0.00 0.00 0.00 83 1017.7
20220811122342 23 211 0.0 0.0 0.00 0.00 0.00 83 1017.7
20220811121842 23 211 0.0 0.0 0.00 0.00 0.00 82 1017.6
20220811121341 23 211 0.0 0.0 0.00 0.00 0.00 81 1017.6
20220811120841 24 211 0.0 0.0 0.00 0.00 0.00 80 1017.5
20220811120340 23 211 0.0 0.0 0.00 0.00 0.00 83 1017.5
20220811115839 23 211 0.0 0.0 0.00 0.00 0.00 84 1017.6
20220811115339 23 211 0.0 0.0 0.00 0.00 0.00 83 1017.4
20220811114839 23 211 0.0 0.0 0.00 0.00 0.00 84 1017.2
20220811114338 23 211 0.0 0.0 0.00 0.00 0.00 83 1017.7
20220811113838 23 211 0.0 0.0 0.00 0.00 0.00 83 1017.6
20220811113336 23 211 0.0 0.0 0.00 0.00 0.00 83 1017.6
20220811112836 23 211 0.0 0.0 0.00 0.00 0.00 83 1017.5
20220811112335 23 212 0.0 0.0 0.00 0.00 0.00 84 1017.2
20220811111831 23 211 1.6 1.6 0.00 0.00 0.00 84 1017.4
20220811111327 23 211 0.0 0.0 0.00 0.00 0.00 84 1017.3
20220811110827 23 217 0.0 0.0 0.00 0.00 0.00 83 1017.3
20220811110326 23 217 0.0 0.0 0.00 0.00 0.00 83 1017.4
20220811105826 23 215 0.0 0.0 0.00 0.00 0.00 82 1017.4
20220811105326 23 217 0.0 0.0 0.00 0.00 0.00 80 1017.2
20220811104825 23 212 0.0 1.6 0.00 0.00 0.00 81 1017.2
20220811104324 23 215 0.0 0.0 0.00 0.00 0.00 84 1017.4
20220811103824 22 215 0.0 0.0 0.00 0.00 0.00 84 1017.5
20220811103320 23 219 0.0 0.0 0.00 0.00 0.00 84 1017.3
20220811102818 23 220 0.0 0.0 0.00 0.00 0.00 83 1017.3
20220811102318 23 225 0.0 0.0 0.00 0.00 0.00 82 1017.4
20220811101817 23 216 0.0 0.0 0.00 0.00 0.00 82 1017.4
20220811101317 23 220 0.0 0.0 0.00 0.00 0.00 80 1017.5
20220811100817 23 215 0.0 0.0 0.00 0.00 0.00 81 1017.3
20220811100317 23 215 0.0 0.0 0.00 0.00 0.00 83 1017.6
20220811095816 23 212 0.0 0.0 0.00 0.00 0.00 83 1017.4
20220811095315 23 212 0.0 0.0 0.00 0.00 0.00 82 1017.6
20220811094815 23 212 0.0 0.0 0.00 0.00 0.00 81 1017.5
20220811094314 24 212 0.0 0.0 0.00 0.00 0.00 79 1017.5
20220811093814 23 212 0.0 0.0 0.00 0.00 0.00 80 1017.5
20220811093312 23 212 0.0 0.0 0.00 0.00 0.00 82 1017.6
20220811092812 23 212 0.0 1.6 0.00 0.00 0.00 81 1017.5
20220811092311 23 212 0.0 0.0 0.00 0.00 0.00 81 1017.5
20220811091810 23 212 0.0 0.0 0.00 0.00 0.00 81 1017.5
20220811091309 23 215 0.0 0.0 0.00 0.00 0.00 81 1017.5
20220811090808 24 215 0.0 0.0 0.00 0.00 0.00 79 1017.8
20220811090308 23 212 0.0 0.0 0.00 0.00 0.00 81 1017.7
20220811085807 23 218 0.0 0.0 0.00 0.00 0.00 81 1018.1
20220811085306 23 213 0.0 0.0 0.00 0.00 0.00 81 1017.7
20220811084806 23 219 0.0 0.0 0.00 0.00 0.00 81 1017.9
20220811084304 23 213 0.0 0.0 0.00 0.00 0.00 80 1017.8
20220811083804 24 210 0.0 0.0 0.00 0.00 0.00 79 1017.9
20220811083302 25 212 1.6 1.6 0.00 0.00 0.00 78 1018.0
20220811082801 23 212 0.0 0.0 0.00 0.00 0.00 81 1017.9
20220811082300 23 212 0.0 0.0 0.00 0.00 0.00 81 1017.9
20220811081801 23 212 0.0 0.0 0.00 0.00 0.00 81 1018.0
20220811081259 23 212 0.0 0.0 0.00 0.00 0.00 81 1018.0
20220811080758 23 212 0.0 1.6 0.00 0.00 0.00 80 1018.1
20220811080256 25 212 0.0 0.0 0.00 0.00 0.00 78 1017.9
20220811075755 24 212 0.0 1.6 0.00 0.00 0.00 79 1018.1
20220811075255 23 212 0.0 0.0 0.00 0.00 0.00 81 1018.1
20220811074754 23 212 0.0 0.0 0.00 0.00 0.00 81 1018.0
20220811074254 24 212 0.0 0.0 0.00 0.00 0.00 80 1017.9
20220811073753 24 212 0.0 0.0 0.00 0.00 0.00 79 1018.2
20220811073251 25 212 0.0 1.6 0.00 0.00 0.00 77 1018.4
20220811072751 24 212 0.0 1.6 0.00 0.00 0.00 79 1018.1
20220811072250 23 211 0.0 0.0 0.00 0.00 0.00 81 1018.3
20220811071750 23 212 0.0 0.0 0.00 0.00 0.00 81 1018.3
20220811071249 24 212 0.0 0.0 0.00 0.00 0.00 80 1018.5
20220811070749 24 212 0.0 0.0 0.00 0.00 0.00 78 1018.6
20220811070248 25 212 0.0 0.0 0.00 0.00 0.00 77 1018.6
20220811065747 24 212 0.0 0.0 0.00 0.00 0.00 79 1018.4
20220811065246 23 211 0.0 0.0 0.00 0.00 0.00 80 1018.7
20220811064745 24 211 0.0 0.0 0.00 0.00 0.00 79 1018.9
20220811064244 24 215 0.0 0.0 0.00 0.00 0.00 79 1018.9
20220811063744 25 215 0.0 0.0 0.00 0.00 0.00 76 1019.0
20220811063243 25 218 1.6 1.6 0.00 0.00 0.00 77 1018.8
20220811062742 24 214 0.0 1.6 0.00 0.00 0.00 79 1019.0
20220811062241 24 211 0.0 0.0 0.00 0.00 0.00 79 1018.9
20220811061740 25 211 0.0 0.0 0.00 0.00 0.00 78 1019.0
20220811061240 25 211 0.0 0.0 0.00 0.00 0.00 77 1019.1
20220811060739 25 212 0.0 0.0 0.00 0.00 0.00 75 1018.9
20220811060239 25 214 0.0 1.6 0.00 0.00 0.00 77 1018.9
20220811055738 25 215 0.0 0.0 0.00 0.00 0.00 78 1019.1
20220811055237 25 217 0.0 0.0 0.00 0.00 0.00 77 1019.1
20220811054737 25 217 0.0 0.0 0.00 0.00 0.00 76 1019.2
20220811054236 25 216 0.0 1.6 0.00 0.00 0.00 74 1019.2
20220811053735 25 214 0.0 0.0 0.00 0.00 0.00 77 1019.0
20220811053234 25 225 0.0 0.0 0.00 0.00 0.00 77 1019.3
20220811052733 25 220 0.0 0.0 0.00 0.00 0.00 77 1019.2
20220811052232 25 225 0.0 0.0 0.00 0.00 0.00 76 1018.8
20220811051731 25 221 0.0 0.0 0.00 0.00 0.00 75 1018.9
20220811051230 25 222 0.0 0.0 0.00 0.00 0.00 74 1019.0
20220811050729 25 227 1.6 1.6 0.00 0.00 0.00 75 1019.0
20220811050227 25 170 4.8 4.8 0.00 0.00 0.00 75 1019.1
20220811045726 26 227 1.6 3.2 0.00 0.00 0.00 73 1019.0
20220811045226 26 229 0.0 1.6 0.00 0.00 0.00 71 1018.7
20220811044725 26 217 0.0 1.6 0.00 0.00 0.00 71 1019.1
20220811044224 26 239 3.2 3.2 0.00 0.00 0.00 73 1019.2
20220811043724 26 224 3.2 4.8 0.00 0.00 0.00 72 1019.3
20220811043223 26 227 1.6 1.6 0.00 0.00 0.00 71 1019.2
20220811042723 26 225 1.6 3.2 0.00 0.00 0.00 70 1019.6
20220811042221 26 218 4.8 4.8 0.00 0.00 0.00 69 1019.6
20220811041721 26 262 4.8 8.0 0.00 0.00 0.00 69 1019.6
20220811041219 26 208 3.2 3.2 0.00 0.00 0.00 70 1019.3
20220811040718 27 222 6.4 11.3 0.00 0.00 0.00 70 1019.2
20220811040218 27 219 3.2 3.2 0.00 0.00 0.00 68 1019.2
20220811035717 27 294 6.4 11.3 0.00 0.00 0.00 67 1019.4
20220811035217 27 281 1.6 3.2 0.00 0.00 0.00 67 1019.0
20220811034716 27 210 6.4 11.3 0.00 0.00 0.00 66 1018.6
20220811034216 27 265 6.4 9.7 0.00 0.00 0.00 65 1018.6
20220811033715 27 245 4.8 4.8 0.00 0.00 0.00 59 1018.7
20220811033214 28 224 4.8 8.0 0.00 0.00 0.00 59 1018.9
20220811032714 28 219 0.0 0.0 0.00 0.00 0.00 58 1018.3
20220811032213 28 212 3.2 3.2 0.00 0.00 0.00 58 1018.3
20220811031712 28 211 3.2 4.8 0.00 0.00 0.00 58 1018.6
20220811031211 28 215 1.6 1.6 0.00 0.00 0.00 58 1018.6
20220811030710 28 215 0.0 1.6 0.00 0.00 0.00 58 1018.7
20220811030210 28 214 3.2 4.8 0.00 0.00 0.00 58 1018.4
20220811025710 28 209 4.8 4.8 0.00 0.00 0.00 58 1018.6
20220811025210 28 215 0.0 1.6 0.00 0.00 0.00 59 1018.4
20220811024709 28 212 1.6 1.6 0.00 0.00 0.00 60 1018.2
20220811024207 28 213 0.0 1.6 0.00 0.00 0.00 60 1018.1
20220811023707 28 215 3.2 3.2 0.00 0.00 0.00 61 1017.8
20220811023205 28 210 1.6 1.6 0.00 0.00 0.00 60 1017.9
20220811022705 28 215 6.4 8.0 0.00 0.00 0.00 59 1017.9
20220811022204 28 217 4.8 4.8 0.00 0.00 0.00 60 1017.9
20220811021705 28 219 4.8 4.8 0.00 0.00 0.00 61 1017.8
20220811021204 28 215 3.2 3.2 0.00 0.00 0.00 61 1017.8
20220811020703 28 222 1.6 1.6 0.00 0.00 0.00 62 1017.7
20220811020202 28 225 0.0 0.0 0.00 0.00 0.00 62 1017.7
20220811015701 28 212 1.6 3.2 0.00 0.00 0.00 62 1017.8
20220811015159 28 213 3.2 3.2 0.00 0.00 0.00 62 1017.6
20220811014658 28 218 1.6 1.6 0.00 0.00 0.00 61 1017.6
20220811014158 28 198 1.6 3.2 0.00 0.00 0.00 61 1017.5
20220811013657 28 222 0.0 1.6 0.00 0.00 0.00 64 1017.7
20220811013156 28 224 0.0 0.0 0.00 0.00 0.00 62 1017.5
20220811012656 28 229 1.6 1.6 0.00 0.00 0.00 60 1017.1
20220811012156 28 232 0.0 0.0 0.00 0.00 0.00 61 1017.3
20220811011655 28 228 0.0 1.6 0.00 0.00 0.00 62 1017.2
20220811011153 28 194 4.8 9.7 0.00 0.00 0.00 62 1017.0
20220811010653 28 183 8.0 9.7 0.00 0.00 0.00 62 1016.9
20220811010151 28 209 8.0 11.3 0.00 0.00 0.00 61 1016.4
20220811005651 28 213 14.5 17.7 0.00 0.00 0.00 60 1016.4
20220811005149 28 214 8.0 9.7 0.00 0.00 0.00 62 1016.2
20220811004649 28 191 8.0 11.3 0.00 0.00 0.00 63 1016.5
20220811004148 28 184 4.8 8.0 0.00 0.00 0.00 64 1016.7
20220811003647 28 206 9.7 12.9 0.00 0.00 0.00 66 1016.9